This is the latest recevied weather packets stored in our database for station/object IN3XSV-13. If no packets are shown the sender has not sent any weather packets the latest 10 day(s).
| Time | Temp. | Humidity | Pressure | Rain* | Wind** | Luminosity | Snow |
|---|---|---|---|---|---|---|---|
| 1777893831 | 24.44° C | 40% | 9955.4 hPa | 0 mm | - | - | - |
| 1777893531 | 24.44° C | 39% | 9955.7 hPa | 0 mm | - | - | - |
| 1777893231 | 24.44° C | 40% | 9955.6 hPa | 0 mm | - | - | - |
| 1777892931 | 23.89° C | 41% | 9955.7 hPa | 0 mm | - | - | - |
| 1777892631 | 23.33° C | 41% | 9955.6 hPa | 0 mm | - | - | - |
| 1777892331 | 22.78° C | 42% | 9955.7 hPa | 0 mm | - | - | - |
| 1777892031 | 22.78° C | 41% | 9955.8 hPa | 0 mm | - | - | - |
| 1777891731 | 23.33° C | 39% | 9955.7 hPa | 0 mm | - | - | - |
| 1777891431 | 25° C | 37% | 9955.8 hPa | 0 mm | - | - | - |
| 1777891131 | 25.56° C | 38% | 9955.9 hPa | 0 mm | - | - | - |
| 1777890831 | 25° C | 38% | 9956 hPa | 0 mm | - | - | - |
| 1777890531 | 25.56° C | 38% | 9956 hPa | 0 mm | - | - | - |
| 1777890231 | 25° C | 39% | 9956.1 hPa | 0 mm | - | - | - |
| 1777889931 | 24.44° C | 39% | 9956.2 hPa | 0 mm | - | - | - |
| 1777889631 | 23.89° C | 41% | 9956.2 hPa | 0 mm | - | - | - |
| 1777889331 | 23.89° C | 41% | 9956.4 hPa | 0 mm | - | - | - |
| 1777889031 | 23.33° C | 42% | 9956.4 hPa | 0 mm | - | - | - |
| 1777888731 | 22.78° C | 43% | 9956.4 hPa | 0 mm | - | - | - |
| 1777888431 | 22.22° C | 43% | 9956.4 hPa | 0 mm | - | - | - |
| 1777888131 | 22.22° C | 42% | 9956.5 hPa | 0 mm | - | - | - |
| 1777887831 | 22.78° C | 41% | 9956.5 hPa | 0 mm | - | - | - |
| 1777887531 | 24.44° C | 40% | 9956.6 hPa | 0 mm | - | - | - |
| 1777887231 | 25° C | 40% | 9956.7 hPa | 0 mm | - | - | - |
| 1777886931 | 25° C | 39% | 9956.6 hPa | 0 mm | - | - | - |
| 1777886631 | 24.44° C | 41% | 9956.5 hPa | 0 mm | - | - | - |
* Rain latest hour (hover to see other rain measurements)
** Current wind speed in m/s (hover to see current wind gust speed)